Weather History for KHLC - February, 2014

Change the Weather History Date:

Monday, February 10, 2014

  Actual Average Record
Temperature  
Mean Temperature 11 °F 32 °F  
Max Temperature 15 °F 45 °F 80 °F (1996)
Min Temperature 6 °F 19 °F -8 °F (2001)
Degree Days  
Heating Degree Days 53    
Moisture  
Dew Point 6 °F    
Average Humidity 77    
Maximum Humidity 84    
Minimum Humidity 71    
Precipitation  
Precipitation 0.02 in 0.03 in 0.06 in (1998)
Month to date precipitation 0.14 0.19  
Year to date precipitation 0.24 0.64  
Sea Level Pressure  
Sea Level Pressure 30.41 in    
Wind  
Wind Speed 6 mph (ESE)    
Max Wind Speed 9 mph    
Max Gust Speed -    
Visibility 8 miles    
Events Snow    
T = Trace of Precipitation, MM = Missing Value Source: NWS Daily Summary

Daily Weather History Graph

Daily Weather History Graph

Search for Another Location

Airport or City:

Trip Planner

Search our weather history database for the weather conditions in past years. The results will help you decide how hot, cold, wet, or windy it might be!

Date:

Astronomy

Feb. 10, 2014 Rise Set
Actual Time 7:37 AM CST 6:10 PM CST
Civil Twilight 7:09 AM CST 6:38 PM CST
Nautical Twilight 6:37 AM CST 7:09 PM CST
Astronomical Twilight 6:06 AM CST 7:41 PM CST
Moon 2:41 PM CST (2/10) 4:31 AM CST (2/10)
Length of Visible Light 11h 28m
Length of Day
10h 33m
Waxing Gibbous, 85% of the Moon is Illuminated
Feb 10
Waxing Gibbous
Feb 14
Full
Feb 22
Last Quarter
Mar 1
New
Mar 8
First Quarter

Hourly Weather History & Observations

Time (CST) Temp. Windchill Dew Point Humidity Pressure Visibility Wind Dir Wind Speed Gust Speed Precip Events Conditions
12:35 AM 10.9 °F -0.8 °F 6.1 °F 81% 30.36 in 1.8 mi NE 8.1 mph - 0.01 in Snow Light Snow
12:53 AM 10.9 °F 2.9 °F 6.1 °F 81% 30.48 in 1.5 mi NE 4.6 mph - 0.01 in Snow Light Snow
1:06 AM 10.9 °F 0.2 °F 6.1 °F 81% 30.35 in 2.0 mi NE 6.9 mph - 0.00 in Snow Light Snow
1:17 AM 10.9 °F 1.4 °F 6.1 °F 81% 30.36 in 2.0 mi NE 5.8 mph - 0.00 in Snow Light Snow
1:29 AM 10.9 °F 0.2 °F 6.1 °F 81% 30.35 in 1.8 mi NE 6.9 mph - 0.00 in Snow Light Snow
1:44 AM 10.9 °F 2.9 °F 6.1 °F 81% 30.36 in 2.5 mi NE 4.6 mph - 0.01 in Snow Light Snow
1:53 AM 10.0 °F 3.6 °F 6.1 °F 84% 30.49 in 4.0 mi NE 3.5 mph - 0.01 in Snow Light Snow
2:07 AM 10.0 °F 1.8 °F 5.0 °F 80% 30.36 in 8.0 mi NE 4.6 mph - 0.00 in   Partly Cloudy
2:53 AM 10.9 °F 2.9 °F 6.1 °F 81% 30.47 in 10.0 mi ENE 4.6 mph - 0.00 in   Overcast
3:53 AM 10.9 °F 2.9 °F 6.1 °F 81% 30.48 in 10.0 mi NE 4.6 mph - N/A   Overcast
4:18 AM 10.9 °F - 7.0 °F 84% 30.36 in 10.0 mi Calm Calm - N/A   Overcast
4:44 AM 10.9 °F 1.4 °F 6.1 °F 81% 30.34 in 8.0 mi ENE 5.8 mph - N/A   Overcast
4:53 AM 10.9 °F 1.4 °F 6.1 °F 81% 30.47 in 9.0 mi NE 5.8 mph - N/A   Overcast
5:18 AM 10.9 °F 1.4 °F 6.1 °F 81% 30.35 in 10.0 mi ENE 5.8 mph - N/A   Overcast
5:53 AM 10.9 °F 1.4 °F 5.0 °F 77% 30.47 in 9.0 mi East 5.8 mph - N/A   Overcast
6:53 AM 10.9 °F 2.9 °F 5.0 °F 77% 30.47 in 10.0 mi East 4.6 mph - N/A   Overcast
7:53 AM 10.9 °F 2.9 °F 5.0 °F 77% 30.50 in 10.0 mi SE 4.6 mph - N/A   Overcast
8:53 AM 10.9 °F 1.4 °F 5.0 °F 77% 30.50 in 7.0 mi SE 5.8 mph - N/A   Overcast
9:53 AM 12.0 °F 1.5 °F 5.0 °F 73% 30.48 in 8.0 mi East 6.9 mph - N/A   Overcast
10:53 AM 12.9 °F 0.7 °F 6.1 °F 74% 30.46 in 10.0 mi ESE 9.2 mph - N/A   Overcast
11:53 AM 12.9 °F 0.7 °F 6.1 °F 74% 30.46 in 10.0 mi ESE 9.2 mph - N/A   Overcast
12:51 PM 12.2 °F 2.9 °F 6.8 °F 79% 30.32 in 10.0 mi South 5.8 mph - N/A   Overcast
12:53 PM 12.9 °F 1.6 °F 6.1 °F 74% 30.45 in 10.0 mi South 8.1 mph - N/A   Overcast
1:00 PM 14.0 °F 5.1 °F 6.1 °F 71% 30.32 in 10.0 mi South 5.8 mph - N/A   Overcast
1:11 PM 14.0 °F 3.9 °F 7.0 °F 74% 30.31 in 10.0 mi SE 6.9 mph - N/A   Overcast
1:23 PM 14.0 °F 6.5 °F 7.0 °F 74% 30.31 in 10.0 mi SSE 4.6 mph - N/A   Overcast
1:30 PM 14.0 °F 2.9 °F 6.1 °F 71% 30.30 in 10.0 mi SE 8.1 mph - N/A   Overcast
1:37 PM 14.0 °F 2.9 °F 6.1 °F 71% 30.30 in 10.0 mi SE 8.1 mph - N/A   Overcast
1:53 PM 14.0 °F 3.9 °F 6.1 °F 71% 30.43 in 10.0 mi Variable 6.9 mph - N/A   Overcast
2:53 PM 14.0 °F 3.9 °F 6.1 °F 71% 30.42 in 10.0 mi South 6.9 mph - N/A   Overcast
3:53 PM 14.0 °F 2.9 °F 6.1 °F 71% 30.42 in 10.0 mi South 8.1 mph - N/A   Overcast
4:53 PM 14.0 °F 3.9 °F 6.1 °F 71% 30.43 in 10.0 mi South 6.9 mph - N/A   Overcast
5:53 PM 14.0 °F 5.1 °F 6.1 °F 71% 30.45 in 10.0 mi SE 5.8 mph - N/A   Overcast
6:53 PM 12.9 °F 3.8 °F 6.1 °F 74% 30.46 in 10.0 mi SE 5.8 mph - N/A   Overcast
7:53 PM 12.9 °F 5.2 °F 6.1 °F 74% 30.47 in 10.0 mi SE 4.6 mph - N/A   Scattered Clouds
8:53 PM 12.9 °F 5.2 °F 6.1 °F 74% 30.46 in 10.0 mi SSE 4.6 mph - N/A   Partly Cloudy
9:53 PM 12.0 °F 5.9 °F 7.0 °F 80% 30.47 in 10.0 mi South 3.5 mph - N/A   Clear
10:53 PM 10.0 °F 3.6 °F 5.0 °F 80% 30.47 in 10.0 mi SSW 3.5 mph - N/A   Clear
11:53 PM 7.0 °F - 3.0 °F 84% 30.47 in 10.0 mi Calm Calm - N/A   Clear